Tracking 19245 objects as of 17-Aug-2018
HD Live streaming from Space Station
objects crossing your sky now

GALAXY 23 (TELSTAR 13)

Track GALAXY 23 (TELSTAR 13) now!
GALAXY 23 (TELSTAR 13) is classified as:


NORAD ID: 27854
Int'l Code: 2003-034A
Perigee: 35,781.2 km
Apogee: 35,806.2 km
Inclination: 0.0 °
Period: 1,436.1 minutes
Semi major axis: 42164 km
RCS: 36.5219 m2 (large)
Launch date: August 8, 2003
Source: United States (US)
Launch site: SEA LAUNCH (SEAL)

24 C-band, 2 Ka-band, 32 Ku-band; additional C-band payload owned and operated by Loral Skynet.
aabbcc
Your satellite tracking list
Your tracking list is empty




NASA's NSSDC Master Catalog

Two Line Element Set (TLE):
1 27854U 03034A   18228.61126692 -.00000010  00000-0  00000+0 0  9991
2 27854   0.0243 240.6326 0002971 268.2165 275.1569  1.00271916 59858
Source of the keplerian elements: AFSPC